Location: Gilevgi
(36.8751°N, 30.0581°E)
Time: 03:37:26
(UTC+00:00)

YAOGAN 1 - Visible Passes

Search period start: 17 March 2026 00:00
Search period end: 27 March 2026 00:00
Orbit: 604 x 607 km, 97.8° (Epoch: 16 March)

Date Brightness Start Highest point End Pass type
(mag) Time Alt. Az. Time Alt. Az. Time Alt. Az.
17 Mar 3.0 16:41:08 10° S 16:45:20 66° WSW 16:49:35 10° NNW visible
18 Mar 3.8 16:54:03 10° S 16:58:07 46° W 17:02:12 10° NNW visible
19 Mar 4.5 17:07:06 10° SSW 17:10:54 32° W 17:14:44 10° NNW visible
20 Mar 5.1 17:20:21 10° SSW 17:23:43 23° W 17:27:07 10° NW visible
21 Mar 5.5 17:33:51 10° SW 17:36:34 16° W 17:39:17 10° NW visible
22 Mar 5.8 17:47:56 10° WSW 17:49:25 12° W 17:50:54 10° WNW visible
24 Mar 2.7 16:34:32 10° S 16:38:46 80° WSW 16:43:02 10° NNW visible
25 Mar 3.4 16:47:22 10° S 16:51:31 55° W 16:55:42 10° NNW visible
26 Mar 4.1 17:00:21 10° SSW 17:04:17 38° W 17:08:16 10° NNW visible
